Location: Erp
(42.9417°N, 1.2009°E)
Time: 07:04:36
(UTC+00:00)

BlueWalker 3 - Visible Passes

Search period start: 12 March 2026 00:00
Search period end: 22 March 2026 00:00
Orbit: 451 x 458 km, 53.2° (Epoch: 11 March)

Date Brightness Start Highest point End Pass type
(mag) Time Alt. Az. Time Alt. Az. Time Alt. Az.
12 Mar 4.2 03:49:12 17° N 03:49:12 17° N 03:51:29 10° NE visible
12 Mar 3.0 05:23:50 10° NW 05:27:15 39° NNE 05:30:38 10° E visible
13 Mar 5.0 03:14:27 12° NE 03:14:27 12° NE 03:15:05 10° NE visible
13 Mar 3.3 04:48:08 12° NW 04:51:00 32° NNE 04:54:17 10° E visible
14 Mar 3.6 04:13:28 22° NNW 04:14:45 27° NNE 04:17:53 10° E visible
15 Mar 3.9 03:38:52 23° NNE 03:38:52 23° NNE 03:41:27 10° ENE visible
15 Mar 1.7 05:12:38 10° NW 05:16:13 77° SW 05:19:48 10° SE visible
16 Mar 5.0 03:04:23 13° ENE 03:04:23 13° ENE 03:05:00 10° ENE visible
16 Mar 1.7 04:38:06 26° NW 04:40:02 81° NE 04:43:37 10° SE visible
17 Mar 2.1 04:03:47 62° NNE 04:03:49 62° NNE 04:07:22 10° ESE visible
18 Mar 4.1 03:29:40 21° E 03:29:40 21° E 03:31:03 10° ESE visible
18 Mar 3.0 05:03:24 18° W 05:04:48 23° SW 05:07:41 10° S visible
19 Mar 2.9 04:29:31 27° SSW 04:29:31 27° SSW 04:31:50 10° SSE visible
21 Mar 3.1 20:04:18 10° SW 20:06:13 29° SSW 20:06:13 29° SSW visible
